Terminal Aerodrome Forecast
Issued by NWS Portland, OR

Home | Current Version | Previous Version | Text Only | Print | Product List | Glossary On
Versions: 1 2 3 4 5 6 7 8 9 10 11 12 13 14 15 16 17 18 19 20 21 22 23 24 25 26 27 28 29 30 31 32 33 34 35 36 37 38 39
000
FTUS46 KPQR 241927 AAA
TAFSLE
TAF AMD
KSLE 241927Z 2419/2518 19012KT P6SM OVC200
     FM242300 18012KT P6SM BKN050 OVC120
     FM250300 18012KT P6SM -RA BKN030 OVC050
     FM250900 18010KT 5SM -RA BKN015 OVC025=

USA.gov is the U.S. government's official web portal to all federal, state and local government web resources and services.